| time (UTC) | temp F | wind direction | speed MPH | gust MPH | rain 1hr in | rain 24hr in | rain mn in | humidity % | barometer mb |
| 20260905175618 | 92 | 112 | 1.0 | 3.0 | 0.00 | 0.00 | 0.00 | 65 | 1013.1 |
| 20260905175057 | 91 | 137 | 1.0 | 4.0 | 0.00 | 0.00 | 0.00 | 65 | 1013.2 |
| 20260905173926 | 90 | 192 | 2.0 | 5.0 | 0.00 | 0.00 | 0.00 | 67 | 1013.5 |
| 20260905172127 | 89 | 88 | 4.0 | 9.0 | 0.00 | 0.00 | 0.00 | 69 | 1013.7 |
| 20260905171619 | 89 | 98 | 4.0 | 9.0 | 0.00 | 0.00 | 0.00 | 69 | 1013.6 |
| 20260905171115 | 90 | 96 | 4.0 | 6.0 | 0.00 | 0.00 | 0.00 | 70 | 1013.5 |
| 20260905165946 | 89 | 92 | 4.0 | 7.0 | 0.00 | 0.00 | 0.00 | 70 | 1013.6 |
| 20260905165424 | 89 | 88 | 4.0 | 8.0 | 0.00 | 0.00 | 0.00 | 70 | 1013.7 |
| 20260905164924 | 89 | 92 | 5.0 | 8.0 | 0.00 | 0.00 | 0.00 | 70 | 1013.7 |
| 20260905164408 | 89 | 73 | 5.0 | 10.0 | 0.00 | 0.00 | 0.00 | 70 | 1013.6 |
| 20260905163903 | 89 | 87 | 5.0 | 10.0 | 0.00 | 0.00 | 0.00 | 70 | 1013.5 |
| 20260905163349 | 89 | 107 | 5.0 | 10.0 | 0.00 | 0.00 | 0.00 | 70 | 1013.5 |
| 20260905162157 | 89 | 102 | 7.0 | 10.0 | 0.00 | 0.00 | 0.00 | 69 | 1013.6 |
| 20260905161004 | 90 | 100 | 4.0 | 8.0 | 0.00 | 0.00 | 0.00 | 67 | 1013.6 |
| 20260905160459 | 91 | 99 | 5.0 | 8.0 | 0.00 | 0.00 | 0.00 | 65 | 1013.7 |
| 20260905155955 | 92 | 88 | 3.0 | 8.0 | 0.00 | 0.00 | 0.00 | 63 | 1013.6 |
| 20260905154805 | 93 | 331 | 1.0 | 4.0 | 0.00 | 0.00 | 0.00 | 63 | 1013.5 |
| 20260905154252 | 92 | 231 | 1.0 | 4.0 | 0.00 | 0.00 | 0.00 | 64 | 1013.6 |
| 20260905153744 | 91 | 171 | 0.0 | 3.0 | 0.00 | 0.00 | 0.00 | 66 | 1013.5 |
| 20260905153242 | 89 | 175 | 1.0 | 8.0 | 0.00 | 0.00 | 0.00 | 68 | 1013.5 |
| 20260905152746 | 88 | 357 | 2.0 | 8.0 | 0.00 | 0.00 | 0.00 | 66 | 1013.4 |
| 20260905152223 | 87 | 325 | 3.0 | 8.0 | 0.00 | 0.01 | 0.00 | 67 | 1013.5 |
| 20260905151717 | 87 | 318 | 4.0 | 8.0 | 0.00 | 0.05 | 0.00 | 67 | 1013.5 |
| 20260905151217 | 86 | 286 | 2.0 | 6.0 | 0.00 | 0.16 | 0.00 | 69 | 1013.5 |
| 20260905150058 | 86 | 322 | 2.0 | 6.0 | 0.00 | 0.36 | 0.00 | 71 | 1013.3 |
| 20260905145544 | 85 | 300 | 2.0 | 4.0 | 0.00 | 0.46 | 0.00 | 71 | 1013.2 |
| 20260905145032 | 85 | 315 | 1.0 | 3.0 | 0.00 | 0.67 | 0.00 | 71 | 1013.4 |
| 20260905144520 | 84 | 296 | 1.0 | 5.0 | 0.00 | 0.90 | 0.00 | 72 | 1013.5 |
| 20260905144004 | 84 | 280 | 2.0 | 5.0 | 0.00 | 0.96 | 0.00 | 72 | 1013.5 |
| 20260905143500 | 84 | 252 | 3.0 | 8.0 | 0.00 | 0.96 | 0.00 | 72 | 1013.6 |
| 20260905142339 | 84 | 234 | 3.0 | 9.0 | 0.00 | 0.97 | 0.00 | 71 | 1013.5 |
| 20260905141225 | 85 | 236 | 4.0 | 11.0 | 0.00 | 1.00 | 0.00 | 71 | 1013.4 |
| 20260905140713 | 85 | 236 | 5.0 | 11.0 | 0.00 | 1.00 | 0.00 | 70 | 1013.5 |
| 20260905135538 | 87 | 234 | 3.0 | 9.0 | 0.00 | 1.00 | 0.00 | 71 | 1013.2 |
| 20260905134424 | 88 | 2 | 1.0 | 5.0 | 0.00 | 1.00 | 0.00 | 75 | 1013.0 |
| 20260905133903 | 88 | 2 | 2.0 | 5.0 | 0.00 | 1.00 | 0.00 | 76 | 1012.8 |
| 20260905133403 | 87 | 299 | 1.0 | 5.0 | 0.00 | 1.00 | 0.00 | 77 | 1012.8 |
| 20260905132903 | 87 | 344 | 1.0 | 5.0 | 0.00 | 1.00 | 0.00 | 77 | 1012.9 |
| 20260905132352 | 87 | 352 | 2.0 | 5.0 | 0.00 | 1.00 | 0.00 | 78 | 1012.9 |
| 20260905131857 | 86 | 339 | 2.0 | 5.0 | 0.00 | 1.00 | 0.00 | 78 | 1012.8 |
| 20260905130720 | 86 | 357 | 2.0 | 5.0 | 0.00 | 1.00 | 0.00 | 80 | 1012.8 |
| 20260905130207 | 86 | 357 | 2.0 | 5.0 | 0.00 | 1.00 | 0.00 | 80 | 1012.7 |
| 20260905125700 | 86 | 30 | 2.0 | 5.0 | 0.00 | 1.00 | 0.00 | 80 | 1012.7 |
| 20260905125147 | 85 | 352 | 1.0 | 3.0 | 0.00 | 1.00 | 0.00 | 80 | 1012.7 |
| 20260905124639 | 85 | 2 | 1.0 | 3.0 | 0.00 | 1.01 | 0.00 | 80 | 1012.6 |
| 20260905124119 | 85 | 357 | 1.0 | 3.0 | 0.00 | 1.01 | 0.00 | 80 | 1012.5 |
| 20260905122938 | 85 | 357 | 1.0 | 3.0 | 0.00 | 1.01 | 0.00 | 80 | 1012.2 |
| 20260905122429 | 85 | 2 | 1.0 | 3.0 | 0.00 | 1.01 | 0.00 | 79 | 1012.2 |
| 20260905121929 | 85 | 357 | 1.0 | 2.0 | 0.00 | 1.01 | 0.00 | 79 | 1012.3 |
| 20260905121410 | 85 | 357 | 0.0 | 2.0 | 0.00 | 1.01 | 0.00 | 79 | 1012.2 |
| 20260905120909 | 85 | 357 | 0.0 | 1.0 | 0.00 | 1.01 | 0.00 | 78 | 1012.0 |
| 20260905120411 | 85 | 357 | 0.0 | 0.0 | 0.00 | 1.01 | 0.00 | 78 | 1012.0 |
| 20260905115901 | 85 | 346 | 0.0 | 0.0 | 0.00 | 1.01 | 0.00 | 78 | 1012.0 |
| 20260905115358 | 85 | 352 | 0.0 | 1.0 | 0.00 | 1.01 | 0.00 | 77 | 1011.8 |
| 20260905114905 | 85 | 331 | 0.0 | 0.0 | 0.00 | 1.01 | 0.00 | 77 | 1011.8 |
| 20260905113713 | 85 | 303 | 0.0 | 0.0 | 0.00 | 1.01 | 0.00 | 76 | 1011.7 |
| 20260905113204 | 85 | 301 | 0.0 | 0.0 | 0.00 | 1.01 | 0.00 | 76 | 1011.6 |
| 20260905112642 | 85 | 271 | 0.0 | 0.0 | 0.00 | 1.01 | 0.00 | 75 | 1011.5 |
| 20260905112132 | 85 | 277 | 0.0 | 0.0 | 0.00 | 1.01 | 0.00 | 75 | 1011.6 |
| 20260905111629 | 85 | 279 | 0.0 | 0.0 | 0.00 | 1.01 | 0.00 | 75 | 1011.5 |
| 20260905111110 | 86 | 288 | 0.0 | 0.0 | 0.00 | 1.01 | 0.00 | 74 | 1011.4 |
| 20260905110616 | 86 | 290 | 0.0 | 0.0 | 0.00 | 1.01 | 0.00 | 74 | 1011.4 |
| 20260905110117 | 86 | 267 | 0.0 | 0.0 | 0.00 | 1.01 | 0.00 | 74 | 1011.2 |
| 20260905105611 | 86 | 289 | 0.0 | 0.0 | 0.00 | 1.01 | 0.00 | 74 | 1011.3 |
| 20260905105105 | 86 | 275 | 0.0 | 0.0 | 0.00 | 1.01 | 0.00 | 73 | 1011.2 |
| 20260905104556 | 86 | 288 | 0.0 | 0.0 | 0.00 | 1.01 | 0.00 | 73 | 1011.3 |
| 20260905104037 | 86 | 237 | 0.0 | 3.0 | 0.00 | 1.01 | 0.00 | 73 | 1011.3 |
| 20260905103531 | 87 | 238 | 0.0 | 3.0 | 0.00 | 1.01 | 0.00 | 73 | 1011.3 |
| 20260905103032 | 87 | 250 | 1.0 | 3.0 | 0.00 | 1.01 | 0.00 | 73 | 1011.3 |
| 20260905102534 | 87 | 224 | 1.0 | 3.0 | 0.00 | 1.01 | 0.00 | 73 | 1011.3 |
| 20260905102020 | 87 | 205 | 1.0 | 5.0 | 0.00 | 1.01 | 0.00 | 73 | 1011.3 |
| 20260905101501 | 87 | 244 | 2.0 | 5.0 | 0.00 | 1.01 | 0.00 | 73 | 1011.2 |
| 20260905100952 | 87 | 227 | 3.0 | 6.0 | 0.00 | 1.01 | 0.00 | 73 | 1011.2 |
| 20260905100446 | 87 | 219 | 3.0 | 6.0 | 0.00 | 1.01 | 0.00 | 73 | 1011.2 |
| 20260905095253 | 87 | 216 | 3.0 | 7.0 | 0.00 | 1.01 | 0.00 | 73 | 1011.4 |
| 20260905094755 | 87 | 204 | 3.0 | 9.0 | 0.00 | 1.01 | 0.00 | 74 | 1011.4 |
| 20260905094233 | 87 | 202 | 3.0 | 9.0 | 0.00 | 1.01 | 0.00 | 74 | 1011.3 |
| 20260905093736 | 87 | 206 | 3.0 | 9.0 | 0.00 | 1.01 | 0.00 | 74 | 1011.2 |
| 20260905092610 | 87 | 200 | 3.0 | 9.0 | 0.00 | 1.01 | 0.00 | 74 | 1011.2 |
| 20260905092109 | 87 | 211 | 3.0 | 8.0 | 0.00 | 1.01 | 0.00 | 74 | 1011.2 |
| 20260905090933 | 87 | 240 | 3.0 | 6.0 | 0.00 | 1.01 | 0.00 | 74 | 1011.4 |
| 20260905090421 | 87 | 222 | 3.0 | 6.0 | 0.00 | 1.01 | 0.00 | 74 | 1011.3 |
| 20260905085924 | 87 | 207 | 3.0 | 8.0 | 0.00 | 1.01 | 0.00 | 74 | 1011.3 |
| 20260905085407 | 87 | 220 | 3.0 | 8.0 | 0.00 | 1.01 | 0.00 | 74 | 1011.2 |
| 20260905084912 | 87 | 196 | 4.0 | 9.0 | 0.00 | 1.01 | 0.00 | 73 | 1011.1 |
| 20260905084356 | 87 | 2 | 4.0 | 9.0 | 0.00 | 1.01 | 0.00 | 74 | 1011.1 |
| 20260905083851 | 87 | 2 | 4.0 | 9.0 | 0.00 | 1.01 | 0.00 | 74 | 1011.0 |
| 20260905083331 | 87 | 2 | 5.0 | 9.0 | 0.00 | 1.01 | 0.00 | 74 | 1011.1 |
| 20260905082149 | 87 | 2 | 4.0 | 8.0 | 0.00 | 1.01 | 0.00 | 73 | 1011.1 |
| 20260905081653 | 87 | 2 | 4.0 | 9.0 | 0.00 | 1.01 | 0.00 | 73 | 1011.2 |
| 20260905081154 | 87 | 188 | 4.0 | 9.0 | 0.00 | 1.01 | 0.00 | 73 | 1011.2 |
| 20260905080658 | 87 | 188 | 4.0 | 9.0 | 0.00 | 1.01 | 0.00 | 73 | 1011.2 |
| 20260905080147 | 87 | 2 | 4.0 | 9.0 | 0.00 | 1.01 | 0.00 | 72 | 1011.2 |
| 20260905075655 | 87 | 188 | 4.0 | 6.0 | 0.00 | 1.01 | 0.00 | 72 | 1011.3 |
| 20260905075148 | 87 | 196 | 4.0 | 6.0 | 0.00 | 1.01 | 0.00 | 72 | 1011.3 |
| 20260905074640 | 87 | 180 | 5.0 | 6.0 | 0.00 | 1.01 | 0.00 | 72 | 1011.3 |
| 20260905074140 | 87 | 193 | 4.0 | 9.0 | 0.00 | 1.01 | 0.00 | 72 | 1011.2 |
| 20260905073624 | 87 | 180 | 4.0 | 9.0 | 0.00 | 1.01 | 0.00 | 73 | 1011.3 |
| 20260905073113 | 87 | 199 | 4.0 | 9.0 | 0.00 | 1.01 | 0.00 | 73 | 1011.3 |
| 20260905072604 | 87 | 196 | 4.0 | 9.0 | 0.00 | 1.01 | 0.00 | 74 | 1011.5 |
| 20260905072056 | 87 | 218 | 4.0 | 9.0 | 0.00 | 1.01 | 0.00 | 73 | 1011.5 |
| 20260905071556 | 87 | 2 | 4.0 | 9.0 | 0.00 | 1.01 | 0.00 | 73 | 1011.7 |
| 20260905071048 | 87 | 2 | 4.0 | 9.0 | 0.00 | 1.01 | 0.00 | 73 | 1011.7 |
| 20260905070547 | 88 | 218 | 4.0 | 9.0 | 0.00 | 1.01 | 0.00 | 72 | 1011.7 |
| 20260905070046 | 88 | 196 | 4.0 | 8.0 | 0.00 | 1.01 | 0.00 | 72 | 1011.6 |
| 20260905065553 | 87 | 182 | 4.0 | 8.0 | 0.00 | 1.01 | 0.00 | 71 | 1011.7 |
| 20260905065036 | 87 | 2 | 4.0 | 8.0 | 0.00 | 1.01 | 0.00 | 72 | 1011.8 |
| 20260905064514 | 87 | 2 | 5.0 | 8.0 | 0.00 | 1.01 | 0.00 | 72 | 1011.9 |
| 20260905063954 | 87 | 199 | 5.0 | 8.0 | 0.00 | 1.01 | 0.00 | 72 | 1011.9 |
| 20260905062216 | 88 | 2 | 5.0 | 11.0 | 0.00 | 1.01 | 0.00 | 73 | 1012.0 |
| 20260905061657 | 88 | 200 | 5.0 | 11.0 | 0.00 | 1.01 | 0.00 | 73 | 1012.0 |
| 20260905055854 | 88 | 2 | 6.0 | 10.0 | 0.00 | 1.01 | 0.00 | 73 | 1011.9 |
| 20260905055351 | 88 | 186 | 6.0 | 10.0 | 0.00 | 1.01 | 0.00 | 73 | 1012.0 |
| 20260905054855 | 88 | 195 | 6.0 | 10.0 | 0.00 | 1.01 | 0.00 | 73 | 1012.0 |
| 20260905054345 | 88 | 213 | 6.0 | 10.0 | 0.00 | 1.01 | 0.00 | 73 | 1011.9 |
| 20260905053826 | 88 | 194 | 6.0 | 10.0 | 0.00 | 1.01 | 0.00 | 73 | 1012.0 |
| 20260905053334 | 88 | 199 | 6.0 | 9.0 | 0.00 | 1.01 | 0.00 | 73 | 1012.2 |
| 20260905052821 | 88 | 192 | 6.0 | 11.0 | 0.00 | 1.01 | 0.00 | 73 | 1012.1 |
| 20260905052320 | 88 | 197 | 6.0 | 11.0 | 0.00 | 1.01 | 0.00 | 73 | 1012.1 |
| 20260905051800 | 88 | 191 | 6.0 | 11.0 | 0.00 | 1.01 | 0.00 | 72 | 1012.1 |
| 20260905051303 | 88 | 2 | 6.0 | 11.0 | 0.00 | 1.01 | 0.00 | 72 | 1012.1 |
| 20260905050754 | 88 | 192 | 6.0 | 11.0 | 0.00 | 1.01 | 0.00 | 72 | 1012.2 |
| 20260905045616 | 88 | 196 | 6.0 | 11.0 | 0.00 | 1.01 | 1.01 | 73 | 1012.2 |
| 20260905045112 | 88 | 194 | 6.0 | 11.0 | 0.00 | 1.01 | 1.01 | 73 | 1012.2 |
| 20260905044555 | 88 | 2 | 5.0 | 9.0 | 0.00 | 1.01 | 1.01 | 73 | 1012.3 |
| 20260905044032 | 88 | 187 | 5.0 | 9.0 | 0.00 | 1.01 | 1.01 | 74 | 1012.4 |
| 20260905043532 | 88 | 183 | 5.0 | 9.0 | 0.00 | 1.01 | 1.01 | 74 | 1012.3 |
| 20260905042418 | 88 | 194 | 5.0 | 9.0 | 0.00 | 1.01 | 1.01 | 74 | 1012.4 |
| 20260905041921 | 88 | 187 | 6.0 | 9.0 | 0.00 | 1.01 | 1.01 | 73 | 1012.4 |
| 20260905040727 | 88 | 202 | 5.0 | 9.0 | 0.00 | 1.01 | 1.01 | 74 | 1012.4 |
| 20260905040216 | 88 | 183 | 5.0 | 9.0 | 0.00 | 1.01 | 1.01 | 74 | 1012.4 |
| 20260905035713 | 88 | 180 | 5.0 | 9.0 | 0.00 | 1.01 | 1.01 | 74 | 1012.5 |
| 20260905035216 | 88 | 187 | 5.0 | 8.0 | 0.00 | 1.01 | 1.01 | 74 | 1012.5 |
| 20260905034654 | 88 | 182 | 5.0 | 8.0 | 0.00 | 1.01 | 1.01 | 75 | 1012.6 |
| 20260905034138 | 88 | 188 | 4.0 | 8.0 | 0.00 | 1.01 | 1.01 | 74 | 1012.7 |
| 20260905033637 | 88 | 180 | 4.0 | 8.0 | 0.00 | 1.01 | 1.01 | 74 | 1012.7 |
| 20260905031917 | 88 | 202 | 4.0 | 7.0 | 0.00 | 1.01 | 1.01 | 73 | 1012.7 |
| 20260905031407 | 88 | 196 | 4.0 | 7.0 | 0.00 | 1.01 | 1.01 | 74 | 1012.6 |
| 20260905030901 | 88 | 199 | 4.0 | 7.0 | 0.00 | 1.01 | 1.01 | 73 | 1012.6 |
| 20260905030407 | 88 | 188 | 4.0 | 8.0 | 0.00 | 1.01 | 1.01 | 73 | 1012.6 |
| 20260905025258 | 88 | 130 | 3.0 | 8.0 | 0.00 | 1.01 | 1.01 | 73 | 1012.7 |
| 20260905024146 | 88 | 221 | 3.0 | 6.0 | 0.00 | 1.01 | 1.01 | 73 | 1012.5 |
| 20260905023645 | 88 | 189 | 4.0 | 8.0 | 0.00 | 1.01 | 1.01 | 74 | 1012.4 |
| 20260905023136 | 88 | 150 | 5.0 | 8.0 | 0.00 | 1.01 | 1.01 | 74 | 1012.4 |
| 20260905022637 | 88 | 175 | 4.0 | 8.0 | 0.00 | 1.01 | 1.01 | 74 | 1012.3 |
| 20260905022121 | 88 | 2 | 4.0 | 8.0 | 0.00 | 1.01 | 1.01 | 74 | 1012.2 |
| 20260905015658 | 88 | 195 | 3.0 | 6.0 | 0.00 | 1.01 | 1.01 | 73 | 1012.1 |
| 20260905015149 | 88 | 2 | 2.0 | 5.0 | 0.00 | 1.01 | 1.01 | 73 | 1012.1 |
| 20260905014638 | 88 | 164 | 3.0 | 5.0 | 0.00 | 1.01 | 1.01 | 73 | 1012.0 |
| 20260905014120 | 88 | 134 | 2.0 | 5.0 | 0.00 | 1.01 | 1.01 | 73 | 1011.9 |
| 20260905012941 | 88 | 184 | 4.0 | 8.0 | 0.00 | 1.01 | 1.01 | 74 | 1011.8 |
| 20260905012443 | 88 | 162 | 3.0 | 8.0 | 0.00 | 1.01 | 1.01 | 74 | 1011.7 |
| 20260905011943 | 88 | 200 | 3.0 | 6.0 | 0.00 | 1.01 | 1.01 | 74 | 1011.7 |
| 20260905011444 | 88 | 153 | 3.0 | 6.0 | 0.00 | 1.01 | 1.01 | 74 | 1011.7 |
| 20260905010924 | 88 | 174 | 3.0 | 6.0 | 0.00 | 1.01 | 1.01 | 74 | 1011.6 |
| 20260905010429 | 88 | 121 | 4.0 | 8.0 | 0.00 | 1.01 | 1.01 | 74 | 1011.5 |
| 20260905005929 | 88 | 188 | 4.0 | 8.0 | 0.00 | 1.01 | 1.01 | 74 | 1011.3 |
| 20260905005417 | 88 | 164 | 4.0 | 8.0 | 0.00 | 1.01 | 1.01 | 74 | 1011.3 |
| 20260905004917 | 88 | 161 | 4.0 | 8.0 | 0.00 | 1.01 | 1.01 | 73 | 1011.2 |
| 20260905004414 | 88 | 150 | 3.0 | 6.0 | 0.00 | 1.01 | 1.01 | 73 | 1011.3 |
| 20260905003244 | 89 | 163 | 4.0 | 8.0 | 0.00 | 1.01 | 1.01 | 73 | 1011.3 |
| 20260905002722 | 89 | 101 | 3.0 | 8.0 | 0.00 | 1.01 | 1.01 | 72 | 1011.4 |
| 20260905001556 | 90 | 190 | 4.0 | 8.0 | 0.00 | 1.01 | 1.01 | 71 | 1011.4 |
| 20260905001036 | 90 | 194 | 4.0 | 8.0 | 0.00 | 1.01 | 1.01 | 71 | 1011.4 |
| 20260905000530 | 90 | 148 | 4.0 | 8.0 | 0.00 | 1.01 | 1.01 | 70 | 1011.4 |
| 20260905000015 | 90 | 204 | 4.0 | 8.0 | 0.00 | 1.01 | 1.01 | 70 | 1011.5 |
| 20260904235521 | 91 | 171 | 3.0 | 6.0 | 0.00 | 1.01 | 1.01 | 69 | 1011.5 |
| 20260904235015 | 91 | 172 | 3.0 | 6.0 | 0.00 | 1.01 | 1.01 | 69 | 1011.3 |
| 20260904234511 | 91 | 175 | 3.0 | 6.0 | 0.00 | 1.01 | 1.01 | 69 | 1011.2 |
| 20260904234012 | 91 | 173 | 3.0 | 6.0 | 0.00 | 1.01 | 1.01 | 68 | 1011.4 |
| 20260904233455 | 91 | 161 | 3.0 | 6.0 | 0.00 | 1.01 | 1.01 | 69 | 1011.3 |
| 20260904232937 | 91 | 175 | 3.0 | 6.0 | 0.00 | 1.01 | 1.01 | 68 | 1011.3 |
| 20260904232434 | 91 | 180 | 3.0 | 6.0 | 0.00 | 1.01 | 1.01 | 69 | 1011.4 |
| 20260904231938 | 91 | 151 | 3.0 | 6.0 | 0.00 | 1.01 | 1.01 | 68 | 1011.4 |
| 20260904231445 | 91 | 161 | 4.0 | 8.0 | 0.00 | 1.01 | 1.01 | 68 | 1011.5 |
| 20260904230942 | 91 | 140 | 4.0 | 8.0 | 0.00 | 1.01 | 1.01 | 68 | 1011.5 |
| 20260904230422 | 91 | 195 | 4.0 | 8.0 | 0.00 | 1.01 | 1.01 | 68 | 1011.5 |
| 20260904225859 | 91 | 136 | 3.0 | 8.0 | 0.00 | 1.01 | 1.01 | 68 | 1011.5 |
| 20260904225345 | 91 | 145 | 3.0 | 7.0 | 0.00 | 1.01 | 1.01 | 69 | 1011.4 |
| 20260904224826 | 91 | 243 | 3.0 | 6.0 | 0.00 | 1.01 | 1.01 | 69 | 1011.4 |
| 20260904224311 | 91 | 148 | 2.0 | 7.0 | 0.00 | 1.01 | 1.01 | 69 | 1011.6 |
| 20260904223808 | 91 | 162 | 2.0 | 7.0 | 0.00 | 1.01 | 1.01 | 68 | 1011.5 |
| 20260904223313 | 91 | 111 | 3.0 | 7.0 | 0.00 | 1.01 | 1.01 | 69 | 1011.6 |
| 20260904222803 | 91 | 197 | 2.0 | 7.0 | 0.00 | 1.01 | 1.01 | 68 | 1011.7 |
| 20260904222244 | 91 | 138 | 2.0 | 6.0 | 0.00 | 1.01 | 1.01 | 69 | 1011.6 |
| 20260904221742 | 91 | 179 | 3.0 | 6.0 | 0.00 | 1.01 | 1.01 | 68 | 1011.4 |
| 20260904221247 | 91 | 184 | 2.0 | 6.0 | 0.00 | 1.01 | 1.01 | 68 | 1011.4 |
| 20260904220751 | 91 | 121 | 2.0 | 6.0 | 0.00 | 1.01 | 1.01 | 68 | 1011.3 |
| 20260904220230 | 92 | 186 | 2.0 | 6.0 | 0.00 | 1.01 | 1.01 | 69 | 1011.4 |
| 20260904215735 | 92 | 111 | 3.0 | 6.0 | 0.00 | 1.01 | 1.01 | 70 | 1011.3 |
| 20260904215234 | 91 | 116 | 2.0 | 6.0 | 0.00 | 1.01 | 1.01 | 70 | 1011.5 |
| 20260904214738 | 91 | 146 | 2.0 | 8.0 | 0.00 | 1.01 | 1.01 | 71 | 1011.5 |
| 20260904214228 | 91 | 92 | 1.0 | 8.0 | 0.00 | 1.01 | 1.01 | 70 | 1011.5 |
| 20260904213725 | 91 | 83 | 2.0 | 8.0 | 0.00 | 1.01 | 1.01 | 70 | 1011.5 |
| 20260904213207 | 91 | 32 | 3.0 | 8.0 | 0.00 | 1.01 | 1.01 | 70 | 1011.7 |
| 20260904212707 | 91 | 93 | 3.0 | 8.0 | 0.00 | 1.01 | 1.01 | 70 | 1011.7 |
| 20260904212206 | 91 | 198 | 2.0 | 8.0 | 0.00 | 1.01 | 1.01 | 70 | 1011.8 |
| 20260904211653 | 91 | 90 | 2.0 | 7.0 | 0.00 | 1.01 | 1.01 | 69 | 1012.0 |
| 20260904211154 | 91 | 164 | 2.0 | 9.0 | 0.00 | 1.01 | 1.01 | 69 | 1011.9 |
| 20260904210634 | 92 | 202 | 3.0 | 9.0 | 0.00 | 1.01 | 1.01 | 69 | 1012.0 |
| 20260904205514 | 92 | 104 | 1.0 | 9.0 | 0.00 | 1.01 | 1.01 | 69 | 1011.9 |
| 20260904205007 | 92 | 105 | 1.0 | 6.0 | 0.00 | 1.01 | 1.01 | 69 | 1012.1 |
| 20260904204513 | 92 | 171 | 2.0 | 6.0 | 0.00 | 1.01 | 1.01 | 68 | 1012.1 |
| 20260904204001 | 92 | 280 | 1.0 | 5.0 | 0.00 | 1.01 | 1.01 | 68 | 1012.2 |
| 20260904203443 | 92 | 100 | 2.0 | 5.0 | 0.00 | 1.01 | 1.01 | 67 | 1012.2 |
| 20260904202936 | 92 | 125 | 2.0 | 11.0 | 0.00 | 1.01 | 1.01 | 67 | 1012.4 |
| 20260904202432 | 92 | 100 | 3.0 | 11.0 | 0.00 | 1.01 | 1.01 | 66 | 1012.5 |
| 20260904201909 | 92 | 107 | 5.0 | 11.0 | 0.00 | 1.01 | 1.01 | 65 | 1012.5 |
| 20260904201405 | 93 | 104 | 4.0 | 11.0 | 0.00 | 1.01 | 1.01 | 64 | 1012.6 |
| 20260904200224 | 94 | 201 | 2.0 | 9.0 | 0.00 | 1.01 | 1.01 | 61 | 1012.6 |
| 20260904195721 | 94 | 93 | 2.0 | 9.0 | 0.00 | 1.01 | 1.01 | 60 | 1012.7 |
| 20260904195206 | 94 | 57 | 2.0 | 9.0 | 0.00 | 1.01 | 1.01 | 61 | 1012.9 |
| 20260904194656 | 95 | 126 | 1.0 | 4.0 | 0.00 | 1.01 | 1.01 | 60 | 1012.9 |
| 20260904194202 | 94 | 111 | 1.0 | 4.0 | 0.00 | 1.01 | 1.01 | 61 | 1013.1 |
| 20260904193642 | 94 | 123 | 1.0 | 3.0 | 0.00 | 1.01 | 1.01 | 61 | 1013.0 |
| 20260904193138 | 93 | 91 | 1.0 | 3.0 | 0.00 | 1.01 | 1.01 | 61 | 1013.1 |
| 20260904192633 | 92 | 150 | 2.0 | 4.0 | 0.00 | 1.01 | 1.01 | 61 | 1013.1 |
| 20260904192128 | 92 | 180 | 2.0 | 4.0 | 0.00 | 1.01 | 1.01 | 59 | 1013.1 |
| 20260904185659 | 91 | 165 | 2.0 | 4.0 | 0.00 | 1.01 | 1.01 | 60 | 1013.3 |
| 20260904185156 | 91 | 178 | 2.0 | 4.0 | 0.00 | 1.01 | 1.01 | 62 | 1013.5 |
| 20260904184649 | 91 | 194 | 2.0 | 4.0 | 0.00 | 1.01 | 1.01 | 62 | 1013.5 |
| 20260904184133 | 91 | 176 | 2.0 | 4.0 | 0.00 | 1.01 | 1.01 | 64 | 1013.5 |
| 20260904183626 | 91 | 189 | 2.0 | 4.0 | 0.00 | 1.01 | 1.01 | 65 | 1013.4 |
| 20260904183120 | 91 | 175 | 2.0 | 4.0 | 0.00 | 1.01 | 1.01 | 65 | 1013.6 |
| 20260904182601 | 91 | 189 | 1.0 | 3.0 | 0.00 | 1.01 | 1.01 | 63 | 1013.6 |
| 20260904182054 | 92 | 197 | 1.0 | 5.0 | 0.00 | 1.01 | 1.01 | 62 | 1013.5 |
| 20260904181545 | 92 | 167 | 1.0 | 5.0 | 0.00 | 1.01 | 1.01 | 62 | 1013.6 |